DW4691 Weather Reports


time (UTC)temp
F
wind
direction
speed
knots
gust
knots
rain 1hr
in
rain 24hr
in
rain mn
in
humidity
%
barometer
mb
20260901174551 88 0 0.0 2.6 0.00 0.00 0.00 69 1015.4
20260901173048 88 0 0.0 1.7 0.00 0.00 0.00 69 1015.7
20260901171606 87 0 0.0 1.7 0.00 0.00 0.00 73 1015.9
20260901170104 87 0 0.0 5.2 0.00 0.00 0.00 73 1016.2
20260901164555 87 0 0.0 1.7 0.00 0.00 0.00 73 1016.3
20260901163100 87 0 0.0 1.7 0.00 0.00 0.00 73 1016.2
20260901161557 88 0 0.0 2.6 0.00 0.00 0.00 72 1016.1
20260901160051 88 0 0.0 0.0 0.00 0.00 0.00 74 1015.9
20260901154551 87 0 0.0 1.7 0.00 0.00 0.00 71 1016.0
20260901153102 87 0 0.0 0.0 0.00 0.00 0.00 73 1016.0
20260901151553 87 104 0.0 1.7 0.00 0.00 0.00 75 1016.1
20260901150053 85 0 0.0 0.0 0.00 0.00 0.00 81 1016.1
20260901144552 83 0 0.0 0.0 0.00 0.00 0.00 86 1016.1
20260901143112 82 0 0.0 0.0 0.00 0.00 0.00 87 1016.2
20260901141553 80 0 0.0 0.0 0.00 0.00 0.00 88 1016.3
20260901140053 79 0 0.0 0.0 0.00 0.00 0.00 90 1016.3
20260901134614 78 0 0.0 0.0 0.00 0.00 0.00 90 1016.3
20260901133100 78 0 0.0 0.0 0.00 0.00 0.00 91 1016.2
20260901131554 77 0 0.0 0.0 0.00 0.00 0.00 91 1016.1
20260901130050 76 0 0.0 0.0 0.00 0.00 0.00 91 1015.8
20260901124601 76 0 0.0 0.0 0.00 0.00 0.00 90 1015.7
20260901123055 76 0 0.0 0.0 0.00 0.00 0.00 90 1015.5
20260901121559 76 0 0.0 0.0 0.00 0.00 0.00 90 1015.4
20260901120050 76 0 0.0 0.0 0.00 0.00 0.00 90 1015.2
20260901114559 76 0 0.0 0.0 0.00 0.00 0.00 90 1015.1
20260901113057 76 0 0.0 0.0 0.00 0.00 0.00 90 1015.2
20260901111558 77 0 0.0 0.0 0.00 0.00 0.00 90 1015.1
20260901110055 77 0 0.0 0.0 0.00 0.00 0.00 89 1015.0
20260901104551 77 0 0.0 0.0 0.00 0.00 0.00 89 1015.0
20260901103100 77 0 0.0 0.0 0.00 0.00 0.00 89 1014.9
20260901101555 77 0 0.0 0.0 0.00 0.00 0.00 89 1014.9
20260901100056 77 0 0.0 0.0 0.00 0.00 0.00 89 1014.7
20260901094551 78 0 0.0 0.0 0.00 0.00 0.00 88 1014.7
20260901093047 78 0 0.0 0.0 0.00 0.00 0.00 89 1014.8
20260901091556 78 0 0.0 0.0 0.00 0.00 0.00 89 1014.7
20260901090051 78 0 0.0 0.0 0.00 0.00 0.00 88 1014.9
20260901084549 78 0 0.0 0.0 0.00 0.00 0.00 87 1015.0
20260901083057 78 0 0.0 0.0 0.00 0.00 0.00 88 1015.1
20260901081555 78 0 0.0 0.0 0.00 0.00 0.00 88 1015.1
20260901080055 78 0 0.0 0.0 0.00 0.00 0.00 87 1015.0
20260901074602 79 0 0.0 0.0 0.00 0.00 0.00 87 1015.1
20260901073044 79 0 0.0 0.0 0.00 0.00 0.00 86 1015.1
20260901071554 79 0 0.0 0.0 0.00 0.00 0.00 86 1015.3
20260901070055 80 0 0.0 0.0 0.00 0.00 0.00 85 1015.1
20260901064549 80 0 0.0 0.0 0.00 0.00 0.00 84 1015.2
20260901063058 80 0 0.0 0.0 0.00 0.00 0.00 84 1015.3
20260901061553 81 0 0.0 0.0 0.00 0.00 0.00 84 1015.3
20260901060053 81 0 0.0 0.0 0.00 0.00 0.00 83 1015.5
20260901054552 81 0 0.0 0.0 0.00 0.00 0.00 82 1015.3
20260901053059 82 0 0.0 0.0 0.00 0.00 0.00 80 1015.3
20260901051559 82 0 0.0 0.0 0.00 0.00 0.00 80 1015.3
20260901050053 83 0 0.0 0.0 0.00 0.00 0.00 79 1015.1
20260901044552 83 0 0.0 0.0 0.00 0.00 0.00 79 1015.0
20260901043058 83 0 0.0 0.0 0.00 0.00 0.00 78 1014.9
20260901041551 83 0 0.0 0.0 0.00 0.00 0.00 78 1015.0
20260901040110 83 0 0.0 0.0 0.00 0.00 0.00 78 1014.8
20260901034548 83 0 0.0 0.0 0.00 0.00 0.00 77 1014.7
20260901033057 83 0 0.0 0.0 0.00 0.00 0.00 77 1014.4
20260901031556 84 0 0.0 0.0 0.00 0.00 0.00 75 1014.2
20260901030054 84 0 0.0 0.0 0.00 0.00 0.00 74 1014.2
20260901024546 85 0 0.0 0.0 0.00 0.00 0.00 73 1014.1
20260901023057 85 0 0.0 0.0 0.00 0.00 0.00 72 1014.0
20260901021606 86 0 0.0 0.0 0.00 0.00 0.00 70 1013.7
20260901020101 87 0 0.0 0.0 0.00 0.00 0.00 69 1013.8
20260901014558 88 0 0.0 0.0 0.00 0.00 0.00 68 1013.6
20260901013107 89 0 0.0 0.0 0.00 0.00 0.00 66 1013.5
20260901011604 89 0 0.0 0.0 0.00 0.00 0.00 65 1013.4
20260901010058 90 0 0.0 0.0 0.00 0.00 0.00 64 1013.3
20260901004555 90 0 0.0 0.0 0.00 0.00 0.00 62 1013.4
20260901003049 91 0 0.0 0.0 0.00 0.00 0.00 61 1013.4
20260901001553 92 0 0.0 0.0 0.00 0.00 0.00 59 1013.4
20260901000051 93 0 0.0 0.0 0.00 0.00 0.00 57 1013.6
20260831234601 93 0 0.0 0.0 0.00 0.00 0.00 56 1013.7
20260831233055 93 0 0.0 2.6 0.00 0.00 0.00 55 1013.7
20260831231551 94 0 0.0 0.0 0.00 0.00 0.00 55 1013.6
20260831230048 95 0 0.0 1.7 0.00 0.00 0.00 54 1013.5
20260831224557 95 0 0.0 2.6 0.00 0.00 0.00 54 1013.5
20260831223103 95 0 0.0 1.7 0.00 0.00 0.00 55 1013.7
20260831221614 95 0 0.0 0.9 0.00 0.00 0.00 56 1013.5
20260831220048 95 121 0.0 7.0 0.00 0.00 0.00 56 1013.6
20260831214555 96 0 0.0 7.0 0.00 0.00 0.00 55 1013.5
20260831213050 98 0 0.0 6.1 0.00 0.00 0.00 52 1013.7
20260831211550 99 0 0.0 7.0 0.00 0.00 0.00 44 1013.7
20260831210056 100 0 0.0 2.6 0.00 0.00 0.00 44 1013.7
20260831204556 101 0 0.0 2.6 0.00 0.00 0.00 45 1013.9
20260831203113 100 0 0.0 4.3 0.00 0.00 0.00 44 1014.2
20260831201607 99 0 0.0 1.7 0.00 0.00 0.00 46 1014.4
20260831200138 99 0 0.0 0.0 0.00 0.00 0.00 46 1014.5
20260831194559 98 0 0.0 3.5 0.00 0.00 0.00 47 1014.7
20260831193051 98 0 0.0 0.9 0.00 0.00 0.00 47 1014.9
20260831191548 98 0 0.0 2.6 0.00 0.00 0.00 48 1015.1
20260831190100 97 131 0.0 3.5 0.00 0.00 0.00 49 1015.3
20260831184554 97 0 0.0 2.6 0.00 0.00 0.00 49 1015.5
20260831183049 96 0 0.0 3.5 0.00 0.00 0.00 52 1015.7
20260831181554 95 0 0.0 2.6 0.00 0.00 0.00 53 1015.9
20260831180052 95 0 0.0 2.6 0.00 0.00 0.00 55 1016.1